Location: Unspecified
(0.0000°N, 0.0000°E)
Time: 05:38:31
(UTC+00:00)

N. Korean satellite - Pass Details

Date: 07 May 2021
Orbit: 450 x 501 km, 97.2° (Epoch: 16 May)

Event Time Altitude Azimuth Distance (km) Brightness Sun altitude
Rises 04:24:39 0° 34° (NNE) 2,440 10.9 -21.9°
Reaches altitude 10° 04:27:00 10° 50° (NE) 1,572 10.1 -21.4°
Maximum altitude 04:29:37 21° 101° (E) 1,065 9.0 -20.8°
Drops below altitude 10° 04:32:14 10° 152° (SSE) 1,583 9.3 -20.1°
Sets 04:34:36 0° 168° (SSE) 2,464 10.1 -19.6°
